Grayling, MI

12:25 PM EST on December 13, 2017 (GMT -0500)
Grayling

Weather History for KGOV - April, 2013

Change the Weather History Date:

Sunday, April 14, 2013

  Actual Average (KHTL) Record (KHTL)
Temperature  
Mean Temperature 28 °F -  
Max Temperature 42 °F 54 °F 80 °F (1941)
Min Temperature 14 °F 32 °F 8 °F (1940)
Degree Days  
Heating Degree Days 37    
Moisture  
Dew Point 25 °F    
Average Humidity 75    
Maximum Humidity 100    
Minimum Humidity 38    
Precipitation  
Precipitation 0.00 in - - ()
Sea Level Pressure  
Sea Level Pressure 29.98 in    
Wind  
Wind Speed 5 mph (ESE)    
Max Wind Speed 18 mph    
Max Gust Speed 24 mph    
Visibility 8 miles    
Events Fog , Snow    
Averages and records for this station are not official NWS values.
T = Trace of Precipitation, MM = Missing Value Source: NWS Daily Summary

Daily Weather History Graph

Daily Weather History Graph

Search for Another Location

Airport or City:

Trip Planner

Search our weather history database for the weather conditions in past years. The results will help you decide how hot, cold, wet, or windy it might be!

Date:

Astronomy

Apr. 14, 2013 Rise Set
Actual Time 6:56 AM EDT 8:23 PM EDT
Civil Twilight 6:25 AM EDT 8:53 PM EDT
Nautical Twilight 5:48 AM EDT 9:30 PM EDT
Astronomical Twilight 5:09 AM EDT 10:09 PM EDT
Moon 9:24 AM EDT (4/14) No Moon Set
Length of Visible Light 14h 27m
Length of Day
13h 27m
Waxing Crescent, 17% of the Moon is Illuminated
Apr 14
Waxing Crescent
Apr 18
First Quarter
Apr 25
Full
May 2
Last Quarter
May 9
New

Hourly Weather History & Observations

Time (EDT) Temp. Windchill Dew Point Humidity Pressure Visibility Wind Dir Wind Speed Gust Speed Precip Events Conditions
12:15 AM 31.6 °F 26.0 °F 25.7 °F 79% 29.89 in 10.0 mi WSW 5.8 mph - N/A   Overcast
12:34 AM 31.1 °F 25.4 °F 25.3 °F 79% 29.89 in 10.0 mi WSW 5.8 mph - N/A   Overcast
12:55 AM 31.6 °F 26.0 °F 25.9 °F 79% 29.90 in 10.0 mi WSW 5.8 mph - N/A   Overcast
1:15 AM 31.5 °F 26.8 °F 26.1 °F 80% 29.91 in 10.0 mi WSW 4.6 mph - N/A   Overcast
1:34 AM 31.1 °F 27.7 °F 26.4 °F 83% 29.91 in 5.0 mi WSW 3.5 mph - N/A Snow Light Snow
1:55 AM 31.1 °F 26.4 °F 28.8 °F 91% 29.92 in 2.0 mi West 4.6 mph - N/A Snow Light Snow
2:15 AM 30.6 °F 21.8 °F 28.8 °F 93% 29.93 in 1.2 mi NNW 10.4 mph - N/A Snow Snow
2:34 AM 31.1 °F 27.7 °F 29.3 °F 93% 29.93 in 3.0 mi WNW 3.5 mph - N/A Snow Light Snow
2:55 AM 31.1 °F - 29.3 °F 93% 29.94 in 10.0 mi Calm Calm - N/A   Overcast
3:15 AM 30.4 °F - 29.5 °F 96% 29.94 in 4.0 mi Calm Calm - N/A Snow Light Snow
3:34 AM 29.8 °F - 28.9 °F 96% 29.94 in 10.0 mi Calm Calm - N/A   Overcast
3:55 AM 29.1 °F 25.4 °F 28.6 °F 98% 29.95 in 10.0 mi WNW 3.5 mph - N/A   Mostly Cloudy
4:15 AM 25.3 °F - 24.6 °F 97% 29.96 in 4.0 mi Calm Calm - N/A   Scattered Clouds
4:35 AM 27.9 °F 24.0 °F 27.9 °F 100% 29.96 in 10.0 mi West 3.5 mph - N/A   Clear
4:55 AM 28.4 °F - 28.4 °F 100% 29.97 in 10.0 mi Calm Calm - N/A   Clear
5:15 AM 25.9 °F - 25.9 °F 100% 29.97 in 10.0 mi Calm Calm - N/A   Clear
5:35 AM 20.3 °F - 19.8 °F 98% 29.98 in 7.0 mi Calm Calm - N/A   Clear
5:55 AM 15.8 °F - 14.7 °F 95% 29.98 in 0.5 mi Calm Calm - N/A Fog Light Freezing Fog
6:15 AM 17.1 °F - 16.2 °F 96% 29.98 in 0.2 mi Calm Calm - N/A Fog Light Freezing Fog
6:35 AM 17.6 °F - 16.7 °F 96% 29.99 in 0.5 mi Calm Calm - N/A Fog Light Freezing Fog
6:55 AM 15.8 °F - 14.9 °F 96% 29.99 in 0.2 mi Calm Calm - N/A Fog Light Freezing Fog
7:14 AM 16.3 °F - 15.4 °F 96% 29.99 in 0.2 mi Calm Calm - N/A Fog Light Freezing Fog
7:35 AM 15.8 °F - 14.5 °F 95% 30.01 in 0.5 mi Calm Calm - N/A Fog Light Freezing Fog
7:55 AM 14.5 °F - 13.1 °F 94% 30.02 in 0.2 mi Calm Calm - N/A Fog Light Freezing Fog
8:14 AM 18.5 °F - 18.1 °F 98% 30.03 in 0.2 mi Calm Calm - N/A Fog Light Freezing Fog
8:35 AM 23.9 °F - 23.9 °F 100% 30.04 in 1.0 mi Calm Calm - N/A   Mist
8:55 AM 25.2 °F 19.5 °F 25.2 °F 100% 30.04 in 10.0 mi NE 4.6 mph - N/A   Mostly Cloudy
9:14 AM 26.6 °F - 26.6 °F 100% 30.04 in 10.0 mi Calm Calm - N/A   Mostly Cloudy
9:35 AM 28.4 °F 24.6 °F 28.4 °F 100% 30.04 in 10.0 mi NE 3.5 mph - N/A   Mostly Cloudy
9:55 AM 30.6 °F - 30.6 °F 100% 30.04 in 10.0 mi Calm Calm - N/A   Overcast
10:14 AM 33.3 °F - 32.0 °F 95% 30.03 in 10.0 mi Calm Calm - N/A   Mostly Cloudy
10:35 AM 33.3 °F 28.9 °F 28.0 °F 81% 30.02 in 10.0 mi ENE 4.6 mph - N/A   Scattered Clouds
10:55 AM 34.0 °F 31.0 °F 27.3 °F 77% 30.01 in 10.0 mi NE 3.5 mph - N/A   Scattered Clouds
11:14 AM 35.8 °F 31.9 °F 27.3 °F 71% 30.01 in 10.0 mi North 4.6 mph - N/A   Scattered Clouds
11:35 AM 35.8 °F - 24.6 °F 64% 30.01 in 10.0 mi Calm Calm - N/A   Scattered Clouds
11:55 AM 37.8 °F 34.2 °F 25.7 °F 62% 30.02 in 10.0 mi East 4.6 mph - N/A   Scattered Clouds
12:14 PM 38.3 °F 34.8 °F 25.5 °F 60% 30.04 in 10.0 mi East 4.6 mph - N/A   Scattered Clouds
12:35 PM 38.3 °F - 24.8 °F 58% 30.04 in 10.0 mi Calm Calm - N/A   Clear
12:55 PM 38.3 °F 35.9 °F 25.2 °F 59% 30.03 in 10.0 mi ENE 3.5 mph - N/A   Clear
1:14 PM 38.3 °F 34.8 °F 22.6 °F 53% 30.04 in 10.0 mi ESE 4.6 mph - N/A   Clear
1:35 PM 39.4 °F 37.2 °F 20.8 °F 47% 30.05 in 10.0 mi East 3.5 mph - N/A   Scattered Clouds
1:55 PM 41.0 °F 38.0 °F 23.0 °F 49% 30.05 in 10.0 mi East 4.6 mph - N/A   Mostly Cloudy
2:14 PM 41.5 °F 37.1 °F 23.2 °F 48% 30.05 in 10.0 mi SSE 6.9 mph - N/A   Mostly Cloudy
2:35 PM 41.5 °F 35.9 °F 17.4 °F 38% 30.04 in 10.0 mi South 9.2 mph - N/A   Mostly Cloudy
2:55 PM 42.3 °F 38.6 °F 21.0 °F 43% 30.03 in 10.0 mi SSW 5.8 mph - N/A   Mostly Cloudy
3:14 PM 42.1 °F 40.2 °F 19.4 °F 40% 30.02 in 10.0 mi East 3.5 mph - N/A   Overcast
3:35 PM 42.1 °F 38.4 °F 21.4 °F 44% 30.01 in 10.0 mi SSE 5.8 mph - N/A   Overcast
4:14 PM 41.0 °F 36.4 °F 24.6 °F 52% 29.99 in 10.0 mi SE 6.9 mph - N/A   Overcast
4:35 PM 41.0 °F 35.2 °F 24.1 °F 51% 29.99 in 10.0 mi SE 9.2 mph - N/A   Overcast
4:55 PM 40.8 °F 34.1 °F 24.1 °F 51% 29.97 in 10.0 mi East 11.5 mph - N/A   Overcast
5:14 PM 41.0 °F 35.2 °F 23.9 °F 51% 29.99 in 10.0 mi SE 9.2 mph - N/A   Overcast
5:35 PM 41.0 °F 34.7 °F 24.3 °F 51% 29.97 in 10.0 mi ESE 10.4 mph - N/A   Overcast
5:55 PM 41.0 °F 33.1 °F 26.1 °F 55% 29.98 in 10.0 mi ESE 15.0 mph - N/A   Mostly Cloudy
6:15 PM 41.0 °F 33.1 °F 27.0 °F 57% 29.97 in 10.0 mi ESE 15.0 mph 18.4 mph N/A   Overcast
6:35 PM 40.3 °F 32.6 °F 27.3 °F 60% 29.96 in 10.0 mi ESE 13.8 mph 18.4 mph N/A   Mostly Cloudy
6:55 PM 39.4 °F 31.4 °F 27.0 °F 61% 29.96 in 10.0 mi ESE 13.8 mph 18.4 mph N/A   Scattered Clouds
7:15 PM 38.8 °F 30.8 °F 26.6 °F 61% 29.96 in 10.0 mi ESE 13.8 mph - N/A   Scattered Clouds
7:35 PM 38.3 °F 30.1 °F 25.5 °F 60% 29.96 in 10.0 mi ESE 13.8 mph 19.6 mph N/A   Mostly Cloudy
7:54 PM 38.3 °F 30.1 °F 24.6 °F 58% 29.97 in 10.0 mi ESE 13.8 mph 21.9 mph N/A   Overcast
8:15 PM 38.3 °F 29.7 °F 25.7 °F 61% 29.97 in 10.0 mi SE 15.0 mph 19.6 mph N/A   Scattered Clouds
8:35 PM 38.1 °F 28.4 °F 26.2 °F 62% 29.97 in 10.0 mi ESE 18.4 mph 23.0 mph N/A   Clear
8:54 PM 35.8 °F 26.9 °F 25.5 °F 66% 29.98 in 10.0 mi ESE 13.8 mph 19.6 mph N/A   Clear
9:15 PM 35.8 °F 26.5 °F 27.1 °F 71% 29.98 in 10.0 mi ESE 15.0 mph 24.2 mph N/A   Clear
9:35 PM 35.8 °F 26.1 °F 27.9 °F 73% 29.97 in 10.0 mi East 16.1 mph - N/A   Clear
9:54 PM 35.2 °F 25.8 °F 27.7 °F 74% 29.96 in 10.0 mi ESE 15.0 mph 19.6 mph N/A   Clear
10:15 PM 34.3 °F 25.5 °F 27.3 °F 76% 29.96 in 10.0 mi East 12.7 mph 19.6 mph N/A   Clear
10:35 PM 34.2 °F 25.2 °F 27.1 °F 75% 29.94 in 10.0 mi East 12.7 mph 18.4 mph N/A   Clear
10:54 PM 33.4 °F 24.3 °F 26.6 °F 76% 29.94 in 10.0 mi ESE 12.7 mph 17.3 mph N/A   Clear
11:15 PM 34.0 °F 26.6 °F 27.3 °F 77% 29.94 in 10.0 mi ESE 9.2 mph - N/A   Clear
11:35 PM 34.0 °F 24.6 °F 27.5 °F 77% 29.93 in 10.0 mi ESE 13.8 mph 17.3 mph N/A   Clear
11:54 PM 33.3 °F 24.1 °F 26.8 °F 77% 29.93 in 10.0 mi East 12.7 mph - N/A   Clear